Regional Weather Roundup
Issued by NWS

Home | Current Version | Previous Version | Text Only | Print | Product List | Glossary On
Versions: 1 2 3 4 5 6 7 8 9 10 11 12 13 14 15 16 17 18 19 20 21 22 23 24 25 26 27 28 29 30 31 32 33 34 35 36 37 38 39 40 41 42 43 44 45 46 47 48 49 50
958
ASUS43 KMPX 240201
RWRMN
WEATHER ROUNDUP FOR MINNESOTA
NATIONAL WEATHER SERVICE TWIN CITIES/CHANHASSEN MN
900 PM CDT SUN APR 23 2017


NOTE: "FAIR" INDICATES FEW OR NO CLOUDS BELOW 12,000 FEET WITH NO
SIGNIFICANT WEATHER AND/OR OBSTRUCTIONS TO VISIBILITY. N/A MEANS
CURRENT SKY AND/OR WEATHER CONDITIONS ARE NOT AVAILABLE.

MNZ060>063-068>070-240300-
   Twin Cities Metro

CITY           SKY/WX    TMP DP  RH WIND       PRES   REMARKS
TWIN CITIES    MOCLDY    61  42  49 N10       29.88R
ST PAUL        CLOUDY    59  44  57 N9        29.88R
CRYSTAL        CLOUDY    53  38  56 N12       29.89R
BLAINE           N/A     54  41  62 NE12      29.91R
LAKEVILLE      CLEAR     59  34  38 S3        29.88R
EDEN PRAIRIE   PTCLDY    65  28  24 S5        29.86R
SOUTH ST PAUL  MOCLDY    64  35  34 CALM      29.87R
LAKE ELMO      FAIR      59  45  58 NE8       29.90R
$$
MNZ001>005-007-008-013>017-022>024-027-028-240300-
   Northwest Minnesota

CITY           SKY/WX    TMP DP  RH WIND       PRES   REMARKS
BEMIDJI        DRIZZLE   32  29  90 NE13      30.01F WCI  22
HALLOCK        CLOUDY    36  16  44 E12       30.05F
ROSEAU         CLOUDY    36  21  55 NE6       30.08R
WARROAD        PTCLDY    36  21  55 NE12      30.08S
THIEF RVR FALL LGT SNOW  30  28  92 E18       30.02F FOG     WCI  18
CROOKSTON      CLOUDY    34  28  80 E15       30.00F WCI  24
FOSSTON        MIX PCPN  30  27  86 E14G22    29.99S WCI  20
DETROIT LAKES  CLOUDY    36  32  87 E13G20    29.93S
MOORHEAD       CLOUDY    37  30  75 NE18G25   29.93R
PARK RAPIDS    CLOUDY    35  29  78 E16G23    29.95F WCI  25
MAHNOMEN       CLOUDY    34  30  86 E16G22    29.95S WCI  23
$$
MNZ006-009>011-018-025>026-240300-
   North Central Minnesota

CITY           SKY/WX    TMP DP  RH WIND       PRES   REMARKS
BAUDETTE       CLOUDY    36  13  38 E9        30.07S
FLAG ISLAND    CLOUDY    36   9  32 E7        30.09S
INTL FALLS     CLOUDY    36  17  46 SE5       30.08F
WASKISH        LGT SNOW  30  28  93 E7        30.08R WCI  23
BIG FORK       CLOUDY    34  28  80 NE5       30.06F WCI  30
LONGVILLE      CLOUDY    34  34 100 NE7       30.00S WCI  28
GRAND RAPIDS   CLOUDY    34  29  82 VRB3      30.05S
CRANE LAKE     CLOUDY    34  21  60 CALM      30.12F
ORR            CLOUDY    32  27  80 MISG      30.06F
COOK           CLOUDY    32  30  93 CALM      30.08F
WALKER         CLOUDY    33  29  85 E13G18    30.00F WCI  24
$$
MNZ012-019>021-037-240300-
   Northeast Minnesota

CITY           SKY/WX    TMP DP  RH WIND       PRES   REMARKS
DULUTH         CLOUDY    31  24  75 E16G23    30.06F WCI  20
ELY            CLOUDY    32  30  93 E5        30.09F WCI  27
HIBBING        CLOUDY    32  30  92 E9        30.05F WCI  24
EVELETH        CLOUDY    32  26  79 E3        30.08S
DULUTH HARBOR  CLOUDY    36  30  80 NE26      30.10F
TWO HARBORS    MOCLDY    34  27  75 NE9       30.08F WCI  26
SILVER BAY     CLOUDY    32  28  86 NE7       30.10F WCI  26
GRAND MARAIS     N/A     34  25  69 NE8       30.18S WCI  27
G MARAIS ARPRT CLOUDY    27  19  74 E3        30.13S
$$
MNZ029>031-032-039>041-046>048-054>057-064-240300-
   West Central Minnesota

CITY           SKY/WX    TMP DP  RH WIND       PRES   REMARKS
FERGUS FALLS   CLOUDY    41  34  75 E17G32    29.85R
WHEATON        CLOUDY    50  37  62 E22       29.82R
MORRIS         MOCLDY    50  39  66 E21G32    29.81R
ALEXANDRIA     CLOUDY    43  36  76 E24       29.88S
ELBOW LAKE     FAIR      44  37  74 E23G33    29.84S
WADENA         CLOUDY    37  32  81 E13G21    29.92F
GLENWOOD       PTCLDY    45  37  76 E21       29.87S
APPLETON       CLOUDY    64  32  29 SE5       29.78S
BENSON         CLOUDY    54  37  54 SE17G23   29.83S
ORTONVILLE     MOCLDY    63  34  34 S7        29.76S
MADISON        PTCLDY    61  36  39 SE8       29.78R
WILLMAR        FAIR      54  43  66 E17       29.85R
$$
MNZ033>034-036-042>043-049>051-058-059-240300-
   Central Minnesota

CITY           SKY/WX    TMP DP  RH WIND       PRES   REMARKS
ST CLOUD       PTCLDY    42  35  76 NE8G16    29.92R
SAUK CENTRE    FAIR      42  35  78 NE17G26   29.89S
PAYNESVILLE    PTCLDY    47  38  69 NE18G24   29.88S
AITKIN         MOCLDY    37  25  60 E16G22    29.99S
PINE RIVER     CLOUDY    36  30  80 NE14      30.02R
BRAINERD       PTCLDY    36  30  79 E13G21    29.97S
STAPLES        MOCLDY    37  32  81 E10G17    29.94S
LONG PRAIRIE   FAIR      39  34  81 NE14G25   29.91S
LITTLE FALLS   PTCLDY    37  32  81 E8        29.95R
LITCHFIELD     CLEAR     54  45  71 NE13G18   29.87R
BUFFALO        CLEAR     50  38  63 NE16G22   29.90R
MAPLE LAKE     CLEAR     50  40  69 E15       29.91R
HUTCHINSON     CLOUDY    59  37  44 S3        29.86S
$$
MNZ037-044-045-052-053-240300-
   East Central Minnesota

CITY           SKY/WX    TMP DP  RH WIND       PRES   REMARKS
PRINCETON      PTCLDY    45  36  70 NE10      29.94R
MORA           PTCLDY    36  32  87 NE7       29.99S
CAMBRIDGE      MOCLDY    45  34  65 NE13G21   29.93S
RUSH CITY      PTCLDY    40  32  73 NE13G18   29.98R
MOOSE LAKE     MOCLDY    34  23  64 NE9G16    30.01F WCI  26
HINCKLEY       FAIR      36  32  87 NE12G18   29.99S
CLOQUET        MOCLDY    32  23  69 E16       30.05S WCI  21
MCGREGOR       MOCLDY    34  27  75 E13       30.02S WCI  25
$$
MNZ071>073-080-081-089-090-097-098-240300-
   Southwest Minnesota

CITY           SKY/WX    TMP DP  RH WIND       PRES   REMARKS
MONTEVIDEO     PTCLDY    63  30  29 S5        29.79F
GRANITE FALLS  CLEAR     63  33  33 SE10      29.82S
CANBY          PTCLDY    60  32  34 CALM      29.78S
MARSHALL       CLEAR     62  30  29 S12       29.80S
REDWOOD FALLS  CLEAR     60  30  32 S12       29.82S
OLIVIA         CLEAR     61  32  33 S6        29.82F
PIPESTONE      PTCLDY    57  28  33 S9        29.81S
WINDOM         CLEAR     59  28  31 SE8       29.86S
WORTHINGTON    CLEAR     61  30  31 S15       29.85S
JACKSON        CLEAR     59  28  31 S9        29.88S
TRACY          CLEAR     64  32  30 S10       29.82S
SLAYTON        CLEAR     61  31  32 S10       29.83F
$$
MNZ065>067-074>077-082>085-091>093-240300-
   South Central Minnesota

CITY           SKY/WX    TMP DP  RH WIND       PRES   REMARKS
MANKATO        CLEAR     63  29  27 SW9       29.89R
NEW ULM        CLEAR     57  30  35 S8        29.86S
ST JAMES       CLEAR     61  32  33 S10       29.88S
FAIRMONT       CLEAR     58  31  35 S9        29.89R
GLENCOE        CLEAR     62  36  36 S6        29.86R
FARIBAULT      CLEAR     63  30  29 S5        29.90R
OWATONNA       CLEAR     59  28  31 S8        29.90R
WASECA         CLEAR     57  30  35 S8        29.91R
ALBERT LEA     CLEAR     63  27  25 S7        29.91R
$$
MNZ078>079-086>088-094>096-240300-
   Southeast Minnesota

CITY           SKY/WX    TMP DP  RH WIND       PRES   REMARKS
ROCHESTER      CLEAR     57  34  41 S10       29.93S
RED WING       PTCLDY    64  28  25 S6        29.89R
STANTON        PTCLDY    63  31  30 S5        29.88R
DODGE CENTER   CLEAR     55  37  50 S9        29.92S
WINONA         CLOUDY    63  32  31 CALM      29.93S
AUSTIN         CLEAR     61  30  31 S5        29.92S
PRESTON        PTCLDY    58  32  37 S9        29.94S
$$
ABBREVIATIONS USED IN REMARKS
   TC - TEMPERATURES IN CELSIUS
  WCI - WIND CHILL INDEX
   HX - HEAT INDEX
  VSB - VISIBILITY
$$




USA.gov is the U.S. government's official web portal to all federal, state and local government web resources and services.